www.pogodaiklimat.ru

Погода и климат >> Архив погоды >> Россия >> Чукотка >> Илирней


ПОГОДА в Илирнее

  • Прогноз погоды в Илирнее
  • Монитор погоды в Илирнее
  • Климат города

АРХИВ ПОГОДЫ в Илирнее

Время (UTC), дата Ветер
(напр.,м/с)
 
Видим.   Явления Облачность Т
(С)
Тd
(С)
f
(%)
Тe
(С)
Тes
(С)
Комфортность P
(гПа)
Po
(гПа)
Тmin
(С)
Tmax
(С)
R
(мм)
R24
(мм)
S
(см)
09 10.12 штиль 0
{1}
4000 м слабый снег 10/0
[Ac und]
-24.4 -26.9 80 -24 -24 1032.3 983.6 -24.4 0.0
12 10.12 штиль 0
{1}
4000 м слабый снег 10/0 600 м
[Ac und]
-23.2 -25.7 80 -23 -23 1033.1 984.6
15 10.12 штиль 0
{1}
4000 м слабый снег 10/0
[As op]
-28.1 -31.1 75 -28 -28 1034.6 985.0
18 10.12 штиль 0
{1}
4000 м слабый снег 10/0
[Ac und]
-28.5 -31.4 76 -29 -29 1035.7 986.0
21 10.12 штиль 0
{1}
20 км {снег} 6/0
[Ac trans]
-30.7 -33.9 73 -31 -31 опасность
обморожения
1037.2 986.9 -30.7 0.3 35
00 11.12 В 1
{2}
50 км 10/0
[Ac As]
-28.9 -32.0 74 -33 -33 опасность
обморожения
1037.7 987.7
03 11.12 В 1
{2}
50 км 10/0
[Ac As]
-29.0 -32.0 75 -33 -33 опасность
обморожения
1037.9 987.9
06 11.12 ЮЗ 2
{5}
50 км 10/0
[Ac trans]
-20.8 -24.1 75 -27 -27 1036.9 988.6
09 11.12 СЗ 2
{6}
20 км слабый снег 10/0
[As op]
-21.5 -25.5 70 -28 -28 1037.4 989.0 -20.8 0.0
12 11.12 З 5
{9}
20 км {снег} 10/0
[As op]
-23.2 -27.1 70 -34 -34 опасность
обморожения
1038.4 989.6
15 11.12 З 3
{8}
20 км 10/0
[As op]
-23.8 -27.7 70 -32 -32 опасность
обморожения
1038.2 989.2
18 11.12 СЗ 3
{9}
20 км 10/0
[As op]
-23.4 -27.0 72 -32 -32 опасность
обморожения
1038.1 989.3
21 11.12 С 2
{6}
20 км 8/0
[Ac As]
-24.6 -28.5 70 -31 -31 опасность
обморожения
1038.3 989.1 -24.6 0.0 25
00 12.12 З 2
{5}
50 км 6/0
[Ac trans]
-26.6 -30.4 70 -34 -34 опасность
обморожения
1039.0 989.3
03 12.12 З 1
{4}
50 км 4/0
[Ac trans]
-28.4 -32.2 70 -32 -32 опасность
обморожения
1039.3 989.4
06 12.12 СЗ 3
{6}
20 км 6/0
[Ac trans]
-27.5 -31.3 70 -37 -37 опасность
обморожения
1039.0 989.1
09 12.12 З 3
{7}
20 км 6/0
[Ac trans]
-28.4 -32.2 70 -38 -38 опасность
обморожения
1037.4 988.6 -24.6
12 12.12 З 1
{8}
20 км 6/0 600 м
[Ac trans]
-28.8 -33.3 65 -33 -33 опасность
обморожения
1037.8 987.8
15 12.12 штиль 0
{6}
4000 м слабый снег 10/0
[As op]
-28.4 -32.2 70 -28 -28 1036.0 986.3
18 12.12 штиль 0
{4}
20 км {снег} 10/0
[Ac und]
-28.2 -32.8 65 -28 -28 1035.0 985.3
21 12.12 ЮЗ 3
{6}
20 км 10/0
[Ac und]
-27.9 -32.4 65 -37 -37 опасность
обморожения
1033.3 983.7 -28.8 0.0 25
00 13.12 З 1
{4}
50 км 10/0
[Ac und]
-28.5 -32.9 66 -32 -32 опасность
обморожения
1032.8 983.0
03 13.12 З 2
{7}
20 км слабый снег 10/0
[As op]
-26.5 -30.4 70 -33 -33 опасность
обморожения
1028.9 979.8
06 13.12 З 1
{6}
20 км слабый снег 10/0
[As op]
-26.0 -30.6 65 -30 -30 1027.1 978.3
09 13.12 СЗ 2
{6}
20 км слабый снег 10/0
[As op]
-25.8 -29.7 70 -33 -33 опасность
обморожения
1025.3 976.6 -25.8 0.5
12 13.12 З 1
{5}
20 км слабый снег 10/0
[As op]
-24.6 -28.5 70 -28 -28 1022.8 974.4
15 13.12 В 1
{5}
20 км {снег} 10/0
[As op]
-23.7 -27.6 70 -27 -27 1020.6 972.5
18 13.12 З 2
{6}
20 км 10/0
[As op]
-24.2 -28.1 70 -31 -31 опасность
обморожения
1018.2 970.1
21 13.12 ЮЗ 2
{6}
20 км 10/0
[As op]
-23.5 -27.5 70 -30 -30 1015.9 968.1 -25.8 0.3 26
00 14.12 ЮЗ 2
{5}
20 км слабый снег 10/0
[As op]
-22.9 -26.9 70 -29 -29 1013.2 965.5
03 14.12 ЮЗ 2
{6}
4000 м слабый снег 10/0
[As op]
-22.2 -25.4 75 -28 -28 1010.7 963.3
06 14.12 ЮЗ 2
{7}
4000 м слабый снег 10/0
[As op]
-22.0 -25.2 75 -28 -28 1009.7 962.4
09 14.12 ЮЗ 3
{6}
4000 м слабый снег 10/0
[As op]
-21.5 -24.7 75 -29 -29 1008.7 961.6 -21.5 0.0
12 14.12 З 3
{6}
4000 м слабый снег 10/0
[As op]
-21.5 -24.7 75 -29 -29 1008.5 961.4
15 14.12 З 2
{7}
4000 м слабый снег 10/0
[As op]
-21.6 -24.8 75 -28 -28 1008.4 961.1
18 14.12 З 1
{5}
4000 м слабый снег 10/0
[As op]
-21.3 -24.9 73 -24 -24 1008.7 961.6
21 14.12 СЗ 1
{5}
4000 м слабый снег 10/0
[As op]
-21.4 -25.0 73 -25 -25 1009.1 962.0 -21.5 0.3 24
00 15.12 З 1
{5}
4000 м слабый снег 10/0
[As op]
-20.9 -24.7 71 -24 -24 1009.6 962.5
03 15.12 ЮЗ 1
{5}
4000 м слабый снег 10/0
[As op]
-21.4 -25.6 69 -25 -25 1012.1 964.8
06 15.12 СЗ 2
{7}
4000 м слабый снег 10/0
[As op]
-20.9 -24.9 70 -27 -27 1009.5 962.4
09 15.12 СЗ 1
{2}
20 км {снег} 10/0
[As op]
-20.4 -22.9 80 -23 -23 1008.6 961.7 -20.4 2
12 15.12 С 1
{2}
20 км 10/0
[As op]
-19.4 -22.7 75 -22 -22 1008.0 961.3
15 15.12 штиль 0
{2}
20 км 10/0
[As op]
-20.0 -22.6 80 -20 -20 1008.4 961.5
18 15.12 СЗ 1
{3}
20 км 10/0
[As op]
-20.6 -23.1 80 -24 -24 1008.5 961.4
21 15.12 штиль 0
{2}
20 км 10/0
[As op]
-20.4 -22.9 80 -20 -20 1008.2 961.3 -20.6 28
00 16.12 штиль 0
{1}
50 км 10/0
[As op]
-19.5 -22.1 80 -20 -20 1008.2 961.5
03 16.12 штиль 0
{3}
50 км 10/0
[Ac und]
-22.0 -23.4 88 -22 -22 1009.3 962.8
06 16.12 штиль 0
{1}
20 км 10/0
[Ac und]
-26.1 -28.5 80 -26 -26 1009.9 961.9
09 16.12 штиль 0
{2}
20 км 10/0
[Ac und]
-24.1 -26.6 80 -24 -24 1009.4 961.7 -19.5
12 16.12 штиль 0
{2}
20 км 10/0
[Ac und]
-21.2 -23.0 85 -21 -21 1002.0 961.9
15 16.12 штиль 0
{1}
4000 м слабый снег 10/0
[As op]
-21.3 -23.1 85 -21 -21 1009.1 962.0
18 16.12 штиль 0
{1}
4000 м слабый снег 10/0
[As op]
-19.9 -21.8 85 -20 -20 1009.1 962.2
21 16.12 штиль 0
{2}
4000 м слабый снег 10/0
[Ac und]
-19.3 -21.2 85 -19 -19 1009.4 962.7 -24.1 0.6 25
00 17.12 В 1
{3}
4000 м слабый снег 10/0
[As op]
-19.4 -21.3 85 -22 -22 1010.3 963.5
03 17.12 В 1
{3}
20 км {снег} 10/0
[As op]
-22.2 -24.7 80 -25 -25 1011.0 963.6
06 17.12 ЮВ 1
{2}
20 км 8/0
[As op]
-26.2 -28.7 79 -30 -30 1012.6 964.5

 

Местоположение метеостанции Илирней (Чукотка, Россия): широта 67.25 долгота 167.90 высота над уровнем моря 354 м.

В архиве по умолчанию представлена погода в Илирнее за последнюю неделю. Архивные данные за месяц целиком и за предыдущие месяцы, начиная с января 2011 года, Вы можете получить, выбрав интересующий диапазон дат из раскрывающегося списка и нажав кнопку "Ввод!".

Внимание! Время в таблицах - всемирное. Для получения местного времени необходимо прибавить поправку, которая в Илирнее равна 12 ч.

Смотрите также архив погоды в соседних городах и на ближайших метеорологических станциях:

Погода в Билибино (Чукотка, Россия) (109 км)
Погода в Баимке (Чукотка, Россия) (180 км)
Погода на Островном (Чукотка, Россия) (187 км)
Погода в Чауне (Чукотка, Россия) (215 км)
Погода в Эньмувееме (Чукотка, Россия) (255 км)
Погода в Раучуе (Чукотка, Россия) (257 км)
Погода в Майской (Чукотка, Россия) (276 км)
Погода в Певеке (Чукотка, Россия) (288 км)
Погода в 21 км (Чукотка, Россия) (290 км)
Погода в Комсомольской (Чукотка, Россия) (291 км)

Пояснения к столбцам:

Ветер - указаны скорость ветра в м/с - средняя за 10 мин, порывы в срок и между сроками (в фигурных скобках) и направление, откуда дует ветер: С - северный, СВ - северо-восточный, В - восточный, ЮВ - юго-восточный, Ю - южный, ЮЗ - юго-западный, З - западный, СЗ - северо-западный.
Видимость - горизонтальная дальность видимости в метрах или километрах. При видимости от 1 до 10 км при отсутствии осадков обычно наблюдается дымка, при ухудшении видимости до 1 км и менее - туман. В сухую погоду видимость может ухудшаться дымом, пылью или мглою.
Явления - указаны атмосферные явления, наблюдавшиеся в срок или в последний час перед сроком; фигурными скобками обозначены явления, наблюдавшиеся между сроками (за 1-3 часа до срока); квадратными скобками обозначены град или гололедные отложения с указанием их диаметра в мм.
Облачность - указаны через наклонную черту общая и нижняя облачность в баллах и высота нижней границы облаков в метрах; квадратными скобками обозначены формы облаков: Ci - перистые, Cs - перисто-слоистые, Cc - перисто-кучевые, Ac - высококучевые, As - высокослоистые, Sc - слоисто-кучевые, Ns - слоисто-дождевые, Cu - кучевые, Cb - кучево-дождевые. Подробнее классификацию облаков см. в Атласе облаков (PDF).
T - Температура воздуха - температура, измеренная на высоте 2 м над землей.
Td - Температура точки росы - температура, при понижении до которой содержащийся в воздухе водяной пар достигнет насыщения.
f - Относительная влажность воздуха - влажноcть воздуха, измеренная на высоте 2 м над землей.
Te - Эффективная температура - температура, которую ощущает одетый по сезону человек в тени. Характеристика душности погоды. При расчете учитывается влияние влажности воздуха и скорости ветра на теплоощущения человека.
Tes - Эффективная температура на солнце - температура, которую ощущает человек, с поправкой на солнечный нагрев. Характеристика знойности погоды. Зависит от высоты солнца над горизонтом, облачности и скорости ветра. Ночью, в пасмурную погоду, а также при ветре 12 м/с и более поправка равна нулю.
P - Атмосферное давление - приведенное к уровню моря атмосферное давление.
Po - Атмосферное давление - измеренное на уровне метеостанции атмосферное давление.
Tmin - Минимальная температура - минимум температуры воздуха на высоте 2 м над землей.
Tmax - Максимальная температура - максимум температуры воздуха на высоте 2 м над землей.
R - Количество осадков - Количество выпавших осадков за период времени, мм. При наведении курсора мыши на число - период времени, за который выпало указанное количество осадков.
R24 - Количество осадков - Количество выпавших осадков за 24 часа, мм.
S - Снежный покров - Высота снежного покрова, см. При наведении курсора мыши на число - состояние снежного покрова и степень покрытия местности в баллах.